Hlavní strana
METAR-TAF:

METAR-TAF

Letiště :

Delaware, Ohio, Spojené státy americké

zeměpisná šířka: 40-16-47N, zeměpisná délka: 83-06-53W, výška: 288 m

Aktuální stav počasí

Zpráva byla vytvořena před 1 hodinou a 0 minutami, v 06:59 UTC
Západoseverozápadní vítr 4 kt
Teplota -2°C
Vlhkost vzduchu 86%
Tlak 1027 hPa
Viditelnost: 16.1 km
Jasno

METAR: KDLZ 190659Z AUTO 29004KT 10SM CLR M02/M04 A3033 RMK AO2

Čas: 02:59 (07:59 UTC)


TAF: chybějící

Stav a předpovědi počasí z více než 4 000 letišť (zprávy METAR a TAF).

Červené a žluté tečky na mapě představují dostupné meteorologické stanice.

Když kurzor umístíte na tečku, zobrazí se název stanice.

Pak kliknutím zobrazíte stav a předpověď počasí.

Chcete-li změnit mapu, kliknutím na zelené tlačítko se znaménkem +mapu přiblížíte, kliknutím na zelené tlačítko se znaménkem – mapu oddálíte a kliknutím na zelené šipky přejdete na sousední mapy.


METAR-TAF: